Regional Weather Roundup
Issued by NWS

Home | Current Version | Previous Version | Graphics & Text | Print | Product List | Glossary On
Versions: 1 2 3 4 5 6 7 8 9 10 11 12 13 14 15 16 17 18 19 20 21 22 23 24 25 26 27 28 29 30 31 32 33 34 35 36 37 38 39 40 41 42 43 44 45 46 47 48 49 50
000
ASUS45 KPSR 100110
RWRAZ

ARIZONA HOURLY REGIONAL WEATHER ROUNDUP
NATIONAL WEATHER SERVICE PHOENIX AZ
600 PM MST FRI DEC 09 2016

NOTE: FAIR INDICATES FEW OR NO CLOUDS BELOW 12,000 FEET WITH NO
SIGNIFICANT WEATHER AND/OR OBSTRUCTIONS TO VISIBILITY.

AZZ001>003-036-100200-
NORTHWEST ARIZONA

CITY           SKY/WX    TMP DP  RH WIND       PRES   REMARKS
BULLHEAD CITY  PTCLDY    61  18  18 N14G21    30.18S
KINGMAN        CLEAR     49  28  44 E3        30.21S
$$

AZZ004>008-015-016-018-100200-
NORTH CENTRAL ARIZONA

CITY           SKY/WX    TMP DP  RH WIND       PRES   REMARKS
GRAND CANYON   PTCLDY    35  31  85 CALM      30.27S
WILLIAMS       PTCLDY    39  32  75 SE3       30.26S
PRESCOTT       CLOUDY    44  34  67 CALM      30.22S
FLAGSTAFF      MOCLDY    36  31  82 SW3       30.26F
PAYSON         MOCLDY    46  30  53 S3        30.26F
PAGE           CLEAR     42  15  33 CALM      30.24S
$$

AZZ009>014-017-100200-
NORTHEAST ARIZONA

CITY           SKY/WX    TMP DP  RH WIND       PRES   REMARKS
WINSLOW        PTCLDY    48  28  46 NW8       30.23R
SAINT JOHNS    MOCLDY    44  26  49 CALM      30.23R
WINDOW ROCK    PTCLDY    41  28  60 CALM      30.28R
SHOW LOW       MOCLDY    43  28  56 S3        30.27R
$$

AZZ023-100200-
GREATER PHOENIX AREA

CITY           SKY/WX    TMP DP  RH WIND       PRES   REMARKS
PHOENIX        MOCLDY    67  37  33 W6        30.10F
BUCKEYE        MOCLDY    59  41  51 W5        30.14S
GLENDALE       MOCLDY    66  37  34 CALM      30.13F
LUKE AFB       MOCLDY    63  41  44 W3        30.11S
DEER VALLEY    MOCLDY    63  39  41 NW3       30.12S
SCOTTSDALE     MOCLDY    65  38  36 CALM      30.13F
MESA-FALCON    MOCLDY   N/A N/A N/A W5        30.10S
MESA-GATEWAY   CLEAR     64  37  36 CALM      30.13F
$$

AZZ027-028-100200-
SOUTHWEST MARICOPA COUNTY AND PINAL COUNTY

CITY           SKY/WX    TMP DP  RH WIND       PRES   REMARKS
CASA GRANDE    NOT AVBL
GILA BEND      CLEAR     64  39  39 NW3       30.11S
$$

AZZ503-504-507>509-100200-
SOUTHEAST ARIZONA

CITY           SKY/WX    TMP DP  RH WIND       PRES   REMARKS
TUCSON         MOCLDY    62  34  35 W3        30.16R
DAVIS-MONTHAN  MOCLDY    61  33  35 NW3       30.15R
RYAN FIELD     CLEAR     61  34  36 W6        30.16R
NOGALES        MOCLDY    60  30  32 W6        30.16S
SIERRA VISTA   CLOUDY    56  30  36 SE7       30.22R
DOUGLAS        MOCLDY    53  32  44 NE7       30.20R
SAFFORD        MOCLDY    50  31  48 E5        30.20S
$$

AZZ020-021-025-026-031-100200-
SOUTHWEST ARIZONA

CITY           SKY/WX    TMP DP  RH WIND       PRES   REMARKS
YUMA           CLOUDY    66  25  21 N6        30.12S
$$

CAZ031-033-041-043-047-048-061-100200-
SOUTHERN CALIFORNIA

CITY           SKY/WX    TMP DP  RH WIND       PRES   REMARKS
DOWNTOWN L.A.  FAIR      61  57  87 CALM      30.15S
L.A. AIRPORT   CLOUDY    59  59 100 W3        30.15F
SAN DIEGO      MOCLDY    62  55  77 N10       30.17F
BURBANK        CLEAR     62  51  67 SE6       30.14F
ONTARIO        PTCLDY    60  44  55 CALM      30.15F
RIVERSIDE      CLEAR     62  48  60 CALM      30.15F
PALM SPRINGS   PTCLDY    65  39  38 CALM      30.15
EL CENTRO NAS  MOCLDY    63  34  33 NE3       30.14F
IMPERIAL       MOCLDY    64  32  30 CALM      30.12F
BLYTHE         CLOUDY    62  25  24 SE5       30.14F
NEEDLES        CLEAR     61  18  18 NW7       30.18S
$$

NVZ020-UTZ003-100200-
SOUTHERN NEVADA-UTAH

CITY           SKY/WX    TMP DP  RH WIND       PRES   REMARKS
LAS VEGAS      MOCLDY    55  12  18 CALM      30.21F
SALT LAKE CITY CLOUDY    33  29  85 N5        30.11F WCI  29
$$

NMZ009-TXZ055-100200-
NEW MEXICO-WEST TEXAS

CITY           SKY/WX    TMP DP  RH WIND       PRES   REMARKS
ALBUQUERQUE    CLOUDY    43  27  53 SW5       30.29R
EL PASO        PTCLDY    44  31  60 N3        30.29S
$$


........................KEY........................
SKY/WX - SKY CONDITION/WEATHER
TMP    - TEMPERATURE IN FAHRENHEIT
DP     - DEW POINT IN FAHRENHEIT
RH     - RELATIVE HUMIDITY IN PERCENT
WIND   - DIRECTION AND SPEED IN MILES PER HOUR (MPH)
VRB    - VARIABLE WIND DIRECTION
PRES   - MEAN SEA LEVEL PRESSURE IN INCHES OF MERCURY
         F - FALLING PRESSURE   R - RISING PRESSURE
         S - STEADY PRESSURE
VSB    - VISIBILITY IN MILES
HX     - HEAT INDEX IN FAHRENHEIT
WCI    - WIND CHILL INDEX IN FAHRENHEIT
TC     - TEMPERATURE IN CELSIUS WHICH IS ALSO KNOWN AS
         TEMPERATURE IN CENTIGRADE
AFB    - AIR FORCE BASE
         LUKE AFB IS LUKE AIR FORCE BASE
         DAVIS-MONTHAN IS DAVIS-MONTHAN AIR FORCE BASE
NAS    - NAVAL AIR STATION
         EL CENTRO NAS IS EL CENTRO NAVAL AIR STATION
N/A    - NOT AVAILABLE




USA.gov is the U.S. government's official web portal to all federal, state and local government web resources and services.